Weather History for KBFF - January, 2010

Change the Weather History Date:

Saturday, January 23, 2010

  Actual Average Record
Temperature  
Mean Temperature 31 °F 28 °F  
Max Temperature 41 °F 41 °F 67 °F (1981)
Min Temperature 20 °F 14 °F -24 °F (1894)
Degree Days  
Heating Degree Days 34 37  
Month to date heating degree days 841 874  
Since 1 July heating degree days 3911 3646  
Cooling Degree Days 0 0  
Month to date cooling degree days 0  
Year to date cooling degree days 0  
Moisture  
Dew Point 23 °F    
Average Humidity 78    
Maximum Humidity 100    
Minimum Humidity 55    
Precipitation  
Precipitation T in 0.01 in 0.70 in (1898)
Month to date precipitation 0.03 0.30  
Year to date precipitation 0.03 0.30  
Snow  
Snow 0.00 in 0.20 in 7.00 in (1898)
Month to date snowfall 1.3 4.0  
Since 1 July snowfall 53.3 20.0  
Snow Depth -    
Sea Level Pressure  
Sea Level Pressure 29.47 in    
Wind  
Wind Speed 8 mph (NW)    
Max Wind Speed 24 mph    
Max Gust Speed 28 mph    
Visibility 7 miles    
Events Fog , Snow    
T = Trace of Precipitation, MM = Missing Value Source: NWS Daily Summary

Daily Weather History Graph

Daily Weather History Graph

Search for Another Location

Airport or City:

Trip Planner

Search our weather history database for the weather conditions in past years. The results will help you decide how hot, cold, wet, or windy it might be!

Date:

Astronomy

Jan. 23, 2010 Rise Set
Actual Time 7:14 AM MST 4:58 PM MST
Civil Twilight 6:44 AM MST 5:28 PM MST
Nautical Twilight 6:10 AM MST 6:02 PM MST
Astronomical Twilight 5:37 AM MST 6:35 PM MST
Moon 10:44 AM MST (1/23) 12:37 AM MST (1/23)
Length of Visible Light 10h 43m
Length of Day
9h 43m
First Quarter, 54% of the Moon is Illuminated
Jan 23
First Quarter
Jan 29
Full
Feb 5
Last Quarter
Feb 13
New
Feb 21
First Quarter

Hourly Weather History & Observations

Time (MST) Temp. Windchill Dew Point Humidity Pressure Visibility Wind Dir Wind Speed Gust Speed Precip Events Conditions
12:02 AM 30.2 °F 24.3 °F 28.4 °F 93% 29.31 in 0.5 mi NNW 5.8 mph - N/A Fog Light Freezing Fog
12:19 AM 32.0 °F 24.8 °F 30.2 °F 93% 29.30 in 0.2 mi NW 8.1 mph - N/A Fog Fog
12:53 AM 30.9 °F 27.5 °F 28.9 °F 92% 29.35 in 0.2 mi NNW 3.5 mph - N/A Fog Light Freezing Fog
1:53 AM 30.0 °F 25.2 °F 28.0 °F 92% 29.36 in 0.2 mi WNW 4.6 mph - N/A Fog Light Freezing Fog
2:53 AM 28.0 °F - 27.0 °F 96% 29.37 in 0.2 mi Calm Calm - N/A Fog Light Freezing Fog
3:53 AM 27.0 °F - 26.1 °F 96% 29.38 in 0.2 mi Calm Calm - N/A Fog Light Freezing Fog
4:51 AM 24.8 °F - 21.2 °F 86% 29.34 in 0.5 mi Calm Calm - N/A Fog Light Freezing Fog
4:53 AM 24.1 °F - 21.9 °F 91% 29.40 in 0.8 mi Calm Calm - N/A   Mostly Cloudy
4:59 AM 24.8 °F - 21.2 °F 86% 29.34 in 2.0 mi Calm Calm - N/A   Scattered Clouds
5:07 AM 23.0 °F 18.4 °F 19.4 °F 86% 29.34 in 6.0 mi NNE 3.5 mph - N/A   Scattered Clouds
5:53 AM 21.0 °F - 18.0 °F 88% 29.41 in 10.0 mi Calm Calm - N/A   Clear
6:53 AM 21.0 °F 16.2 °F 17.1 °F 85% 29.42 in 10.0 mi North 3.5 mph - N/A   Clear
7:53 AM 23.0 °F 17.0 °F 19.9 °F 88% 29.43 in 10.0 mi West 4.6 mph - N/A   Clear
8:53 AM 28.9 °F 21.1 °F 26.1 °F 89% 29.44 in 10.0 mi NW 8.1 mph - N/A   Clear
9:53 AM 32.0 °F 25.6 °F 28.0 °F 85% 29.47 in 10.0 mi WNW 6.9 mph - N/A   Mostly Cloudy
10:53 AM 33.1 °F 26.1 °F 30.0 °F 89% 29.47 in 10.0 mi WNW 8.1 mph - N/A   Partly Cloudy
11:53 AM 39.0 °F 31.4 °F 28.9 °F 67% 29.44 in 10.0 mi NW 12.7 mph - N/A   Scattered Clouds
12:53 PM 37.9 °F 30.0 °F 28.0 °F 68% 29.43 in 10.0 mi NNW 12.7 mph - N/A   Partly Cloudy
1:53 PM 41.0 °F 33.1 °F 27.0 °F 57% 29.44 in 10.0 mi NW 15.0 mph - N/A   Clear
2:53 PM 39.9 °F 33.4 °F 27.0 °F 60% 29.47 in 10.0 mi NNW 10.4 mph - N/A   Clear
3:53 PM 37.9 °F 30.5 °F 25.0 °F 60% 29.52 in 10.0 mi North 11.5 mph - N/A   Partly Cloudy
4:53 PM 32.0 °F 23.0 °F 23.0 °F 69% 29.58 in 10.0 mi NNW 11.5 mph - N/A   Clear
5:53 PM 28.9 °F 21.9 °F 21.9 °F 75% 29.62 in 10.0 mi NNW 6.9 mph - N/A   Clear
6:53 PM 28.0 °F 20.0 °F 19.9 °F 72% 29.65 in 10.0 mi NW 8.1 mph - N/A   Clear
7:53 PM 27.0 °F 21.6 °F 18.0 °F 69% 29.67 in 10.0 mi NW 4.6 mph - N/A   Scattered Clouds
8:53 PM 27.0 °F 16.7 °F 18.0 °F 69% 29.67 in 10.0 mi NW 11.5 mph - N/A   Overcast
9:53 PM 26.1 °F 15.0 °F 16.0 °F 66% 29.69 in 10.0 mi NNW 12.7 mph - N/A   Overcast
10:53 PM 25.0 °F 12.2 °F 14.0 °F 63% 29.71 in 10.0 mi NW 16.1 mph 24.2 mph N/A   Overcast
11:53 PM 23.0 °F 10.1 °F 16.0 °F 74% 29.71 in 4.0 mi NW 15.0 mph - 0.00 in Snow Light Snow